FW5974 Weather Reports


time (UTC)temp
C
wind
direction
speed
KPH
gust
KPH
rain 1hr
cm
rain 24hr
cm
rain mn
cm
humidity
%
barometer
mb
20260507051147 8 214 0.0 3.2 0.00 0.43 0.00 91 1083.6
20260507050149 8 282 0.0 0.0 0.00 0.43 0.00 92 1083.9
20260507045147 8 135 0.0 0.0 0.00 0.43 0.00 92 1083.6
20260507044230 9 135 0.0 0.0 0.00 0.43 0.00 92 1083.5
20260507043246 9 135 0.0 0.0 0.00 0.43 0.00 91 1083.3
20260507042330 9 140 0.0 0.0 0.00 0.43 0.00 91 1083.3
20260507040347 10 246 0.0 4.8 0.00 0.43 0.00 90 1083.3
20260507035411 10 298 6.4 12.9 0.03 0.43 0.43 92 1083.4
20260507034409 10 255 3.2 8.0 0.03 0.43 0.43 93 1083.2
20260507033410 10 246 3.2 6.4 0.03 0.43 0.43 94 1083.1
20260507031510 10 313 8.0 12.9 0.08 0.43 0.43 92 1082.7
20260507030525 11 270 0.0 0.0 0.08 0.43 0.43 92 1082.8
20260507025527 11 270 0.0 0.0 0.05 0.41 0.41 91 1082.7
20260507023626 12 266 6.4 17.7 0.10 0.41 0.41 93 1082.7
20260507022611 12 293 1.6 4.8 0.08 0.38 0.36 94 1083.2
20260507020711 13 291 8.0 14.5 0.05 0.36 0.36 94 1082.4
20260507015710 13 263 11.3 19.3 0.05 0.36 0.36 95 1082.0
20260507014726 13 256 6.4 9.7 0.03 0.33 0.33 95 1082.0
20260507013726 13 232 3.2 9.7 0.00 0.30 0.30 95 1082.2
20260507012727 14 215 1.6 8.0 0.00 0.30 0.30 94 1082.0
20260507010811 14 201 0.0 6.4 0.00 0.30 0.30 94 1081.8
20260507005825 14 188 1.6 14.5 0.00 0.30 0.30 93 1082.0
20260507004828 14 221 0.0 3.2 0.00 0.30 0.30 93 1081.8
20260507003910 14 230 0.0 1.6 0.00 0.30 0.30 92 1081.9
20260507003009 14 244 4.8 9.7 0.00 0.30 0.30 92 1081.7
20260507002026 14 188 0.0 3.2 0.00 0.30 0.30 92 1081.4
20260507001110 14 251 4.8 8.0 0.00 0.30 0.30 93 1081.3
20260507001026 14 218 1.6 6.4 0.00 0.30 0.30 92 1081.4
20260506235025 14 209 0.0 4.8 0.00 0.30 0.30 93 1081.4
20260506234011 14 187 0.0 0.0 0.00 0.30 0.30 93 1081.2
20260506233011 14 204 0.0 1.6 0.00 0.30 0.30 93 1081.0
20260506232027 14 173 0.0 3.2 0.00 0.30 0.30 93 1081.2
20260506231111 14 195 0.0 0.0 0.00 0.30 0.30 93 1081.1
20260506231025 14 191 0.0 0.0 0.00 0.30 0.30 92 1081.2
20260506230010 14 228 0.0 0.0 0.00 0.30 0.30 92 1081.4
20260506225026 14 202 0.0 4.8 0.00 0.30 0.30 92 1081.3
20260506224026 14 237 1.6 8.0 0.00 0.30 0.30 93 1081.4
20260506221127 14 248 4.8 16.1 0.00 0.30 0.30 93 1081.4
20260506220211 14 197 1.6 14.5 0.05 0.30 0.30 94 1081.7
20260506215308 14 224 1.6 11.3 0.08 0.30 0.30 94 1081.6
20260506214309 14 187 0.0 3.2 0.08 0.30 0.30 93 1081.5
20260506213327 14 206 1.6 16.1 0.08 0.30 0.30 93 1081.6
20260506211411 14 166 0.0 4.8 0.10 0.30 0.30 93 1081.5
20260506210411 14 192 0.0 4.8 0.10 0.28 0.25 93 1081.7
20260506205326 15 211 1.6 11.3 0.08 0.23 0.23 94 1081.7
20260506204311 15 197 3.2 16.1 0.08 0.23 0.23 94 1082.0
20260506203325 15 176 0.0 0.0 0.10 0.23 0.23 92 1082.0
20260506202326 15 205 0.0 9.7 0.10 0.20 0.20 92 1082.0
20260506201325 15 190 0.0 6.4 0.08 0.18 0.18 93 1082.2
20260506200309 15 197 1.6 8.0 0.08 0.18 0.18 93 1082.2
20260506200225 15 207 1.6 14.5 0.08 0.18 0.15 93 1082.3
20260506193410 15 189 0.0 0.0 0.05 0.13 0.13 90 1082.5
20260506193326 15 171 0.0 3.2 0.05 0.13 0.13 90 1082.8
20260506192327 15 215 3.2 14.5 0.03 0.10 0.10 90 1082.6
20260506191426 15 223 0.0 6.4 0.03 0.10 0.10 91 1082.6
20260506185425 15 195 0.0 6.4 0.08 0.10 0.10 90 1082.4
20260506184411 15 154 0.0 6.4 0.08 0.10 0.10 90 1082.5
20260506180610 16 204 0.0 0.0 0.05 0.05 0.05 87 1083.5
20260506175611 16 191 0.0 0.0 0.05 0.05 0.03 84 1083.8
20260506174625 16 212 0.0 3.2 0.03 0.03 0.03 80 1083.7
20260506173627 16 186 0.0 0.0 0.00 0.00 0.00 77 1084.0
20260506171625 17 204 4.8 11.3 0.00 0.00 0.00 70 1083.7
20260506171512 17 204 8.0 14.5 0.00 0.00 0.00 70 1083.7
20260506170609 18 236 4.8 9.7 0.00 0.00 0.00 68 1083.8
20260506164724 18 155 11.3 17.7 0.00 0.00 0.00 68 1083.7
20260506163710 18 209 4.8 9.7 0.00 0.00 0.00 67 1083.9
20260506162711 18 257 9.7 20.9 0.00 0.00 0.00 67 1084.0
20260506161724 18 250 9.7 16.1 0.00 0.00 0.00 66 1084.0
20260506155726 18 228 4.8 11.3 0.00 0.00 0.00 66 1084.4
20260506154825 18 250 11.3 19.3 0.00 0.00 0.00 65 1084.4
20260506153811 18 212 1.6 11.3 0.00 0.00 0.00 66 1084.7
20260506152827 18 250 4.8 11.3 0.00 0.00 0.00 66 1084.8
20260506151826 18 178 19.3 27.4 0.00 0.00 0.00 67 1084.9
20260506150911 18 177 3.2 12.9 0.00 0.00 0.00 66 1085.1
20260506145925 18 202 4.8 14.5 0.00 0.00 0.00 65 1085.1
20260506145011 19 204 11.3 20.9 0.00 0.00 0.00 65 1085.1
20260506144011 19 196 0.0 9.7 0.00 0.00 0.00 66 1084.7
20260506143025 19 184 3.2 12.9 0.00 0.00 0.00 65 1085.1
20260506142109 19 257 9.7 16.1 0.00 0.00 0.00 67 1084.8
20260506141126 18 248 8.0 12.9 0.00 0.00 0.00 69 1084.6
20260506140125 18 189 1.6 6.4 0.00 0.00 0.00 69 1084.7
20260506134225 18 189 4.8 11.3 0.00 0.00 0.00 72 1084.4
20260506133310 17 244 3.2 9.7 0.00 0.00 0.00 71 1084.7
20260506132325 17 203 3.2 11.3 0.00 0.00 0.00 73 1085.0
20260506131309 17 231 3.2 11.3 0.00 0.00 0.00 73 1084.8
20260506130326 17 237 6.4 14.5 0.00 0.00 0.00 73 1084.9
20260506125409 17 211 6.4 24.1 0.00 0.00 0.00 74 1084.9
20260506124426 17 230 3.2 22.5 0.00 0.00 0.00 76 1085.0
20260506123425 16 238 9.7 14.5 0.00 0.00 0.00 76 1085.2
20260506122510 16 196 12.9 27.4 0.00 0.00 0.00 78 1085.1
20260506121608 16 250 8.0 22.5 0.00 0.00 0.00 77 1085.1
20260506120612 16 189 0.0 1.6 0.00 0.00 0.00 78 1085.1
20260506114610 16 181 0.0 0.0 0.00 0.00 0.00 79 1085.3
20260506113708 15 220 0.0 1.6 0.00 0.00 0.00 80 1085.3
20260506112808 15 187 8.0 16.1 0.00 0.00 0.00 80 1085.5
20260506111824 15 217 8.0 11.3 0.00 0.00 0.00 80 1085.6
20260506105825 15 236 4.8 9.7 0.00 0.00 0.00 79 1085.6
20260506103908 15 206 0.0 8.0 0.00 0.00 0.00 80 1085.3
20260506102924 15 196 1.6 14.5 0.00 0.00 0.00 80 1085.5
20260506102010 15 165 1.6 16.1 0.00 0.00 0.00 80 1085.4
20260506101025 15 200 0.0 4.8 0.00 0.00 0.00 80 1085.4
20260506100044 14 208 0.0 3.2 0.00 0.00 0.00 79 1085.1
20260506094126 15 180 0.0 0.0 0.00 0.00 0.00 78 1085.5
20260506092209 14 223 0.0 1.6 0.00 0.00 0.00 78 1085.4
20260506091225 15 178 0.0 0.0 0.00 0.00 0.00 76 1085.3
20260506090309 15 223 0.0 1.6 0.00 0.00 0.00 76 1085.5
20260506085325 15 204 1.6 9.7 0.00 0.00 0.00 75 1085.4
20260506085226 15 217 0.0 3.2 0.00 0.00 0.00 75 1085.3
20260506084227 15 203 0.0 4.8 0.00 0.00 0.00 74 1085.4
20260506084128 15 228 1.6 6.4 0.00 0.00 0.00 74 1085.4
20260506082210 15 261 4.8 8.0 0.00 0.00 0.00 72 1085.4
20260506082126 15 259 8.0 17.7 0.00 0.00 0.00 73 1085.4
20260506081125 15 205 0.0 3.2 0.00 0.00 0.00 72 1085.3
20260506080224 15 228 0.0 1.6 0.00 0.00 0.00 71 1085.3
20260506073308 16 242 3.2 8.0 0.00 0.00 0.00 68 1085.3
20260506073212 16 236 4.8 9.7 0.00 0.00 0.00 69 1085.2
20260506072127 16 254 6.4 11.3 0.00 0.00 0.00 69 1085.2
20260506062409 16 229 4.8 19.3 0.00 0.00 0.00 64 1085.0
20260506061424 16 249 8.0 11.3 0.00 0.00 0.00 65 1085.1
20260506061327 16 247 8.0 14.5 0.00 0.00 0.00 65 1085.1
20260506060324 16 245 4.8 11.3 0.00 0.00 0.00 65 1085.1